一网星座-0395星 (ONEWEB-0395 )

导读

ONEWEB-0395是英国OneWeb公司的低轨宽带通信卫星,于2021年12月27日发射入轨,属于OneWeb星座组网的卫星之一。OneWeb星座旨在为全球偏远地区及基础设施落后区域提供高速互联网接入服务,ONEWEB-0395的成功入轨,推动了OneWeb全球低轨卫星通信网络的部署进程,助力拓展全球宽带网络覆盖范围。

Basic Information
目录编号:
50475
目录名称:
ONEWEB-0395
国际标识:
2021-132G
轨道中心:
EARTH
卫星名称:
一网星座-0395星
卫星全名:
一网星座-0395星 (ONEWEB-0395 )
卫星状态:
在轨 (已飞行1720 天)
发射日期:
2021-12-27 UTC
国别 :
英国 (GB)
星等 :
--
This satellite is enrolled in the Space Conjunction Data Service (SCDS) and the current flight risk assessment level is: No High Risk
Orbit Information
数据来源 国际轨道数据 AOE轨道数据
星历时间 2026-09-12T02:20:12+0800
13小时前
查看轨道信息
2026-09-06T06:00:00+0800
6天前
查看轨道信息
半长轴 7595.825km 7595.806km
偏心率 0.0001602 0.0001528
轨道倾角 87.896° 87.896°
近地点辐角 101.279° 100.794°
升交点赤经 3.851° 5.010°
平近点角 258.852° 29.114°
近地点 1216.471km 1216.508km
远地点 1218.905km 1218.83km
周期 109.805分钟 109.805分钟
每日圈数 13.114158 13.114206
Detailed Information
平衡模式:
三轴稳定
覆盖范围:
全球
运营商:
一网卫星公司
运营商所在国:
英国
制造商(研发单位):
一网卫星公司
制造商所在国:
英国
使用方式:
暂无
Satellite Introduction
OneWeb卫星网络由648颗重约125公斤的微型卫星组成,运行在1200公里的轨道上。 每颗卫星都能够提供至少每秒8千兆位的吞吐量,以使用其高吞吐量的Ku频段有效载荷为家庭和移动平台提供互联网接入。该卫星仍在工作。
2D Orbit Map
3D Orbit Map
Orbit Altitude Analysis Chart
Orbit Inclination Analysis Chart
Orbit Comprehensive Analysis Chart
View Comprehensive Chart
Conjunction Data List
Event ID Objects TCA Miss Dist (km) Collision Risk Probability Collision Risk Index (CRI) Action
CDM_260914-090200-138905-047521
2026-09-14T
09:02:09+0000
2.284 km
极远距离
2.008412E-6 低风险 0.41
Miss Distance Evolution Trend with All Objects
Collision Probability Evolution Trend with All Objects